Weather History for LICZ - May, 2014

Change the Weather History Date:

Wednesday, May 7, 2014

  Actual Average Record
Temperature  
Mean Temperature 64 °F -  
Max Temperature 80 °F 80 °F 95 °F (2015)
Min Temperature 47 °F 55 °F 46 °F (2006)
Degree Days  
Heating Degree Days 2    
Growing Degree Days 14 (Base 50)    
Moisture  
Dew Point 51 °F    
Average Humidity 70    
Maximum Humidity 100    
Minimum Humidity 21    
Precipitation  
Precipitation 0.00 in 0.02 in - ()
Sea Level Pressure  
Sea Level Pressure 30.12 in    
Wind  
Wind Speed 6 mph ()    
Max Wind Speed 14 mph    
Max Gust Speed -    
Visibility 7.0 miles    
Events      
Averages and records for this station are not official NWS values.
T = Trace of Precipitation, MM = Missing Value Source: Averaged Metar Reports

Daily Weather History Graph

Daily Weather History Graph

Search for Another Location

Airport or City:

Trip Planner

Search our weather history database for the weather conditions in past years. The results will help you decide how hot, cold, wet, or windy it might be!

Date:

Astronomy

May. 07, 2014 Rise Set
Actual Time 5:59 AM CEST 7:55 PM CEST
Civil Twilight 5:30 AM CEST 8:23 PM CEST
Nautical Twilight 4:55 AM CEST 8:58 PM CEST
Astronomical Twilight 4:18 AM CEST 9:35 PM CEST
Moon 12:53 PM CEST (5/7) 1:39 AM CEST (5/7)
Length of Visible Light 14h 53m
Length of Day
13h 56m
First Quarter, 53% of the Moon is Illuminated
May 7
First Quarter
May 14
Full
May 21
Last Quarter
May 28
New
Jun 5
First Quarter

Hourly Weather History & Observations

Time (CEST) Temp. Dew Point Humidity Pressure Visibility Wind Dir Wind Speed Gust Speed Precip Events Conditions
12:55 AM 51.8 °F 50.0 °F 94% 30.18 in - West 3.5 mph - N/A   Clear
1:55 AM 51.8 °F 51.8 °F 100% 30.18 in - West 4.6 mph - N/A   Clear
2:00 AM 52 °F 51 °F 95% 30.21 in 6 mi West 4.6 mph - -  
2:55 AM 50.0 °F 50.0 °F 100% 30.18 in - West 4.6 mph - N/A   Clear
3:55 AM 50.0 °F 50.0 °F 100% 30.18 in - West 3.5 mph - N/A   Clear
4:55 AM 50.0 °F 50.0 °F 100% 30.18 in - West 5.8 mph - N/A   Clear
5:00 AM 50 °F 50 °F 100% 30.20 in 6 mi West 5.8 mph - -  
5:55 AM 50.0 °F 50.0 °F 100% 30.18 in - WNW 6.9 mph - N/A   Clear
6:55 AM 50.0 °F 50.0 °F 100% 30.18 in - West 5.8 mph - N/A   Clear
7:55 AM 57.2 °F 51.8 °F 82% 30.18 in - WNW 8.1 mph - N/A   Clear
8:00 AM 56 °F 52 °F 83% 30.20 in 6 mi WNW 8.1 mph - -   Clear
8:55 AM 60.8 °F 50.0 °F 68% 30.15 in - West 6.9 mph - N/A   Clear
9:55 AM 66.2 °F 50.0 °F 56% 30.15 in - NW 4.6 mph - N/A   Clear
10:55 AM 71.6 °F 44.6 °F 38% 30.12 in 6.2 mi WNW 6.9 mph - N/A   Partly Cloudy
11:00 AM 71 °F 45 °F 28% 30.14 in 11 mi WNW 6.9 mph - -   Scattered Clouds
11:55 AM 73.4 °F 44.6 °F 36% 30.12 in 6.2 mi West 6.9 mph - N/A   Partly Cloudy
12:55 PM 75.2 °F 42.8 °F 31% 30.12 in 6.2 mi West 5.8 mph - N/A   Partly Cloudy
1:55 PM 77.0 °F 42.8 °F 29% 30.09 in 6.2 mi ESE 8.1 mph - N/A   Partly Cloudy
2:00 PM 76 °F 44 °F 21% 30.11 in 12 mi ESE 8.1 mph - -   Scattered Clouds
2:55 PM 75.2 °F 44.6 °F 34% 30.06 in 6.2 mi East 9.2 mph - N/A   Partly Cloudy
3:55 PM 78.8 °F 50.0 °F 36% 30.06 in 6.2 mi ENE 13.8 mph - N/A   Partly Cloudy
4:55 PM 75.2 °F 51.8 °F 44% 30.06 in 6.2 mi ENE 13.8 mph - N/A   Partly Cloudy
5:00 PM 75 °F 52 °F 34% 30.08 in 11 mi ENE 13.8 mph - -   Scattered Clouds
5:55 PM 68.0 °F 53.6 °F 60% 30.06 in 6.2 mi ENE 11.5 mph - N/A   Partly Cloudy
6:55 PM 66.2 °F 53.6 °F 64% 30.06 in 6.2 mi East 8.1 mph - N/A   Partly Cloudy
7:55 PM 62.6 °F 59.0 °F 88% 30.06 in 6.2 mi ESE 4.6 mph - N/A   Scattered Clouds
8:00 PM 63 °F 59 °F 83% 30.08 in 10 mi ESE 4.6 mph - -   Partly Cloudy
8:55 PM 60.8 °F 60.8 °F 100% 30.06 in 6.2 mi Calm Calm - N/A   Scattered Clouds
9:55 PM 62.6 °F 53.6 °F 72% 30.06 in 6.2 mi West 8.1 mph - N/A   Scattered Clouds
10:55 PM 59.0 °F 53.6 °F 82% 30.09 in 6.2 mi WNW 4.6 mph - N/A   Scattered Clouds
11:00 PM 60 °F 54 °F 76% 30.10 in 6 mi WNW 4.6 mph - -   Scattered Clouds
11:55 PM 57.2 °F 55.4 °F 94% 30.06 in 6.2 mi West 9.2 mph - N/A   Scattered Clouds